GPS BIIR-08 1 27663U 03005A 25346.38469984 .00000011 00000+0 00000+0 0 9993 2 27663 54.9234 222.3924 0147449 51.7949 125.2746 2.00570939167568 GPS BIIR-11 1 28190U 04009A 25345.93076765 -.00000076 00000+0 00000+0 0 9997 2 28190 54.9863 283.2515 0108335 167.6362 200.4215 2.00560799159191 GPS BIIR-13 1 28474U 04045A 25346.50101600 -.00000088 00000+0 00000+0 0 9996 2 28474 55.2408 332.4152 0170757 309.2412 170.6572 2.00569519154688 GPS BIIR-14M 1 28874U 05038A 25344.58358242 -.00000064 00000+0 00000+0 0 9999 2 28874 55.0338 280.7877 0131701 293.4518 200.7371 2.00578486148057 METEOSAT-9 (MSG-2) 1 28912U 05049B 25346.85608278 .00000132 00000+0 00000+0 0 9998 2 28912 8.9401 55.9765 0003576 190.0838 189.6047 1.00276669 5134 GPS BIIR-16M 1 29601U 06052A 25345.94915588 .00000009 00000+0 00000+0 0 9996 2 29601 54.9707 221.4296 0087738 87.4221 273.6564 2.00573524139650 GPS BIIR-17M 1 32260U 07047A 25347.25208268 -.00000039 00000+0 00000+0 0 9996 2 32260 53.9555 87.7372 0164139 85.2518 276.6128 2.00564506133089 GPS BIIR-18M 1 32384U 07062A 25347.31008889 -.00000080 00000+0 00000+0 0 9990 2 32384 55.1816 281.6230 0032237 162.4378 10.5516 2.00577339131782 GOES 14 1 35491U 09033A 25347.26248929 -.00000016 00000+0 00000+0 0 9996 2 35491 1.2041 85.3893 0000733 163.7878 177.4312 1.00096153 4724 GOES 15 1 36411U 10008A 25347.21584840 .00000052 00000+0 00000+0 0 9992 2 36411 0.8153 86.0659 0005706 174.8650 320.3294 1.00269961 57770 GSAT0101 (GALILEO-PFM) 1 37846U 11060A 25346.90089229 -.00000087 00000+0 00000+0 0 9999 2 37846 57.0527 346.8154 0003025 315.3436 44.6506 1.70475751 87942 GSAT0102 (GALILEO-FM2) 1 37847U 11060B 25346.24126557 -.00000087 00000+0 00000+0 0 9993 2 37847 57.0536 346.8337 0004980 309.4177 51.2149 1.70475905 87941 LUCH 5A 1 37951U 11074B 25346.54618784 -.00000039 00000+0 00000+0 0 9992 2 37951 8.2797 76.5885 0005532 180.9843 187.6109 1.00274985 51180 METEOSAT-10 (MSG-3) 1 38552U 12035B 25346.98973368 .00000006 00000+0 00000+0 0 9991 2 38552 4.2297 61.7246 0000786 255.1243 121.5641 1.00275102 48996 SARSAT 13 (METOP-B) 1 38771U 12049A 25347.21534546 .00000231 00000+0 12548-3 0 9991 2 38771 98.6800 37.1661 0002931 143.1168 217.0211 14.21408711686847 GPS BIIF-3 1 38833U 12053A 25346.85117339 .00000091 00000+0 00000+0 0 9991 2 38833 53.5578 151.2340 0175867 63.9869 297.8174 2.00565025 95705 GSAT0103 (GALILEO-FM3) 1 38857U 12055A 25344.59466371 .00000011 00000+0 00000+0 0 9993 2 38857 55.6913 106.7254 0002592 268.6178 91.3220 1.70473311 81792 GPS BIIF-4 1 39166U 13023A 25346.21658493 -.00000074 00000+0 00000+0 0 9992 2 39166 54.6524 276.5895 0137857 48.6040 312.5852 2.00565160 92134 INSAT-3D 1 39216U 13038B 25347.22928182 -.00000325 00000+0 00000+0 0 9990 2 39216 1.4462 84.9890 0001427 164.7653 44.4821 1.00269791 45214 GPS BIIF-5 1 39533U 14008A 25346.70916142 .00000095 00000+0 00000+0 0 9998 2 39533 53.6311 156.9259 0079223 226.5032 132.8480 2.00574462 85946 LUCH 5V 1 39727U 14023A 25347.15110801 -.00000256 00000+0 00000+0 0 9998 2 39727 4.6707 71.5351 0004574 206.6475 313.0453 1.00269087 42497 GPS BIIF-6 1 39741U 14026A 25346.99245346 -.00000086 00000+0 00000+0 0 9992 2 39741 56.5834 338.7665 0039190 318.6983 41.0184 2.00561385 84803 GPS BIIF-7 1 40105U 14045A 25346.08285724 -.00000009 00000+0 00000+0 0 9998 2 40105 55.2287 95.9251 0032694 119.8618 240.4523 2.00572516 82323 GSAT0201 (GALILEO 5) 1 40128U 14050A 25343.15484395 -.00000071 00000+0 00000+0 0 9998 2 40128 49.0809 281.2097 1647550 172.1436 190.8359 1.85519530 74797 GSAT0202 (GALILEO 6) 1 40129U 14050B 25345.56703504 -.00000092 00000+0 00000+0 0 9995 2 40129 49.0938 280.1950 1648515 172.9880 189.6770 1.85520366 77009 GPS BIIF-8 1 40294U 14068A 25346.45925529 -.00000095 00000+0 00000+0 0 9992 2 40294 56.8576 38.1568 0060774 69.1795 291.5212 2.00564803 81469 GLONASS-K 2 1 40315U 14075A 25346.06627807 .00000065 00000+0 00000+0 0 9995 2 40315 63.6138 196.8484 0020213 204.6963 155.2753 2.13101306 85862 GPS BIIF-9 1 40534U 15013A 25345.59207032 .00000022 00000+0 00000+0 0 9995 2 40534 53.1979 211.9377 0107007 38.4526 322.3807 2.00562655 78062 GSAT0203 (GALILEO 7) 1 40544U 15017A 25345.50581957 -.00000088 00000+0 00000+0 0 9995 2 40544 56.8465 346.7135 0006509 271.8959 88.0466 1.70475934 66007 GSAT0204 (GALILEO 8) 1 40545U 15017B 25345.17470308 -.00000088 00000+0 00000+0 0 9996 2 40545 56.8530 346.7403 0006249 262.7650 97.1808 1.70475574 29041 GPS BIIF-10 1 40730U 15033A 25346.75053630 -.00000074 00000+0 00000+0 0 9995 2 40730 54.1306 274.7724 0110970 26.8075 333.7759 2.00565613 76259 METEOSAT-11 (MSG-4) 1 40732U 15034A 25347.20553500 .00000074 00000+0 00000+0 0 9999 2 40732 2.7366 71.9998 0000924 127.3211 326.0967 1.00267634 5352 GSAT0205 (GALILEO 9) 1 40889U 15045A 25344.35662209 .00000009 00000+0 00000+0 0 9992 2 40889 55.0041 226.8241 0005904 38.7722 321.3515 1.70473080 63793 GSAT0206 (GALILEO 10) 1 40890U 15045B 25345.16385340 .00000009 00000+0 00000+0 0 9992 2 40890 55.0029 226.7968 0003855 36.8797 323.2259 1.70473071 63831 GPS BIIF-11 1 41019U 15062A 25346.80991923 -.00000096 00000+0 00000+0 0 9994 2 41019 56.8322 37.9995 0110837 229.9471 129.1248 2.00567154 74096 ELEKTRO-L 2 1 41105U 15074A 25347.02614211 -.00000106 00000+0 00000+0 0 9992 2 41105 6.2268 72.8255 0003894 203.8607 160.1915 1.00272374 36644 GSAT0209 (GALILEO 12) 1 41174U 15079A 25344.74540060 .00000011 00000+0 00000+0 0 9993 2 41174 55.7117 106.4357 0002409 351.4479 8.5179 1.70474458 61567 GSAT0208 (GALILEO 11) 1 41175U 15079B 25346.72530985 .00000004 00000+0 00000+0 0 9991 2 41175 55.7111 106.3784 0001880 358.3144 1.6545 1.70474307 62017 GPS BIIF-12 1 41328U 16007A 25344.89809699 .00000001 00000+0 00000+0 0 9997 2 41328 55.4051 96.9301 0092092 243.5329 115.5097 2.00560768 72065 GSAT0211 (GALILEO 14) 1 41549U 16030A 25345.08962215 .00000009 00000+0 00000+0 0 9992 2 41549 55.1527 226.8689 0004128 18.4657 341.6286 1.70473055 59463 GSAT0210 (GALILEO 13) 1 41550U 16030B 25345.34701101 .00000010 00000+0 00000+0 0 9990 2 41550 55.1520 226.8599 0001194 242.2312 117.8354 1.70473653 59466 INSAT-3DR 1 41752U 16054A 25347.05322352 -.00000064 00000+0 00000+0 0 9997 2 41752 0.0927 86.7145 0014337 184.0835 264.3487 1.00270943 33957 GSAT0207 (GALILEO 15) 1 41859U 16069A 25346.21188193 .00000005 00000+0 00000+0 0 9995 2 41859 55.3817 106.2648 0002233 322.8614 37.0934 1.70474433 56214 GSAT0212 (GALILEO 16) 1 41860U 16069B 25345.47896353 .00000008 00000+0 00000+0 0 9991 2 41860 55.3791 106.2805 0002163 27.6057 332.3763 1.70474595 56451 GSAT0213 (GALILEO 17) 1 41861U 16069C 25345.25994433 .00000009 00000+0 00000+0 0 9997 2 41861 55.3813 106.2942 0002357 283.5833 76.3610 1.70474845 56318 GSAT0214 (GALILEO 18) 1 41862U 16069D 25346.57910574 .00000004 00000+0 00000+0 0 9993 2 41862 55.3802 106.2504 0001369 290.3791 69.5760 1.70474744 56466 GOES 16 1 41866U 16071A 25347.21935846 -.00000077 00000+0 00000+0 0 9992 2 41866 0.0645 105.1351 0003211 158.0077 153.3057 1.00271588 33230 GSAT-17 1 42815U 17040B 25347.15076133 -.00000244 00000+0 00000+0 0 9998 2 42815 0.0368 131.4135 0007088 129.3535 329.1039 1.00272436 30924 GSAT0215 (GALILEO 19) 1 43055U 17079A 25345.89611181 .00000013 00000+0 00000+0 0 9997 2 43055 55.1303 226.6610 0001265 350.6161 9.4600 1.70473900 49794 GSAT0216 (GALILEO 20) 1 43056U 17079B 25344.42764509 .00000009 00000+0 00000+0 0 9994 2 43056 55.1311 226.7014 0002480 319.9818 40.0811 1.70473969 49789 GSAT0217 (GALILEO 21) 1 43057U 17079C 25345.82151911 .00000012 00000+0 00000+0 0 9991 2 43057 55.1287 226.6610 0002796 345.2118 14.8584 1.70473970 49797 GSAT0218 (GALILEO 22) 1 43058U 17079D 25346.62814548 .00000017 00000+0 00000+0 0 9998 2 43058 55.1287 226.6365 0002841 306.3289 53.7237 1.70474063 49839 GOES 17 1 43226U 18022A 25347.15322382 -.00000169 00000+0 00000+0 0 9992 2 43226 0.4611 89.1069 0003255 188.3307 130.3195 1.00271779 28555 GSAT0221 (GALILEO 25) 1 43564U 18060A 25344.77100773 -.00000087 00000+0 00000+0 0 9991 2 43564 57.2282 346.8706 0006715 282.7382 77.2035 1.70475777 45957 GSAT0222 (GALILEO 26) 1 43565U 18060B 25345.57692878 -.00000087 00000+0 00000+0 0 9993 2 43565 57.2316 346.8519 0006146 263.5274 96.4200 1.70475594 46015 GSAT0219 (GALILEO 23) 1 43566U 18060C 25346.97124941 -.00000086 00000+0 00000+0 0 9999 2 43566 57.2304 346.8158 0005812 287.2893 72.6656 1.70475808 46010 GSAT0220 (GALILEO 24) 1 43567U 18060D 25344.84583579 -.00000087 00000+0 00000+0 0 9991 2 43567 57.2305 346.8727 0006125 283.9956 75.9532 1.70475727 45967 BEIDOU-3 M13 1 43622U 18072A 25346.67541856 -.00000074 00000+0 00000+0 0 9997 2 43622 56.4592 68.8222 0005872 298.9421 61.0187 1.86230720 49189 BEIDOU-3 M14 1 43623U 18072B 25346.00393095 -.00000068 00000+0 00000+0 0 9998 2 43623 56.4604 68.8385 0003278 334.6213 25.3832 1.86230719 49165 GPS BIII-1 1 43873U 18109A 25346.29595260 -.00000002 00000+0 00000+0 0 9993 2 43873 55.5671 99.5642 0037314 194.9554 348.0380 2.00553613 51328 METEOR-M2 2 1 44387U 19038A 25347.29883662 .00000253 00000+0 12961-3 0 9993 2 44387 98.8974 327.0344 0001263 146.3208 213.8051 14.24291780334831 GPS BIII-2 1 44506U 19056A 25345.42533024 -.00000087 00000+0 00000+0 0 9996 2 44506 55.7218 338.6041 0057751 198.4885 332.8185 2.00566237 46306 BEIDOU-3 M24 1 44542U 19061A 25345.84513808 .00000073 00000+0 00000+0 0 9990 2 44542 54.4002 189.0463 0009541 24.1300 335.9744 1.86229199 42307 BEIDOU-3 M23 1 44543U 19061B 25346.24559894 .00000079 00000+0 00000+0 0 9997 2 44543 54.3988 189.0008 0006147 23.3250 158.0349 1.86227487 42313 BEIDOU-3 M22 1 44793U 19078A 25346.22216193 -.00000093 00000+0 00000+0 0 9999 2 44793 54.1087 306.4039 0005676 23.3376 336.6791 1.86231761 41169 BEIDOU-3 M21 1 44794U 19078B 25346.89678728 -.00000096 00000+0 00000+0 0 9992 2 44794 54.0814 306.3454 0003884 10.3666 349.6317 1.86227428 41189 ELEKTRO-L 3 1 44903U 19095A 25344.75855682 -.00000092 00000+0 00000+0 0 9998 2 44903 0.0482 149.5988 0002738 128.1058 151.1127 1.00271788 21819 GPS BIII-3 1 45854U 20041A 25345.22433941 -.00000094 00000+0 00000+0 0 9992 2 45854 56.5461 36.2442 0060460 203.3747 126.9066 2.00561914 40268 COSMOS 2547 1 46805U 20075A 25342.89301153 .00000045 00000+0 00000+0 0 9990 2 46805 64.5958 198.8249 0006384 229.7163 130.3027 2.13099854 39856 GPS BIII-4 1 46826U 20078A 25347.03714125 .00000027 00000+0 00000+0 0 9994 2 46826 54.0150 218.3288 0064671 203.3817 326.8000 2.00566814 37778 GSAT0223 (GALILEO 27) 1 49809U 21116A 25344.11071397 -.00000087 00000+0 00000+0 0 9992 2 49809 57.2198 346.7831 0004630 251.6037 107.9349 1.70475768 24951 GSAT0224 (GALILEO 28) 1 49810U 21116B 25344.80995012 -.00000087 00000+0 00000+0 0 9999 2 49810 57.2205 346.7629 0003930 256.2791 284.9883 1.70475895 24991 GOES 18 1 51850U 22021A 25347.22698649 .00000000 00000+0 00000+0 0 9991 2 51850 0.0012 21.0089 0000648 307.8801 57.9823 1.00272141 4724 COSMOS 2557 (706K) 1 52984U 22075A 25341.18125486 -.00000052 00000+0 00000+0 0 9990 2 52984 64.4129 321.2470 0013704 276.9000 82.9390 2.13101754 26625 METEOSAT-12 (MTG-I1) 1 54743U 22170C 25347.20362832 .00000006 00000+0 00000+0 0 9996 2 54743 0.6874 23.6793 0001690 237.9001 253.6075 1.00269152 11116 METEOR-M2 3 1 57166U 23091A 25347.32387294 .00000038 00000+0 35383-4 0 9995 2 57166 98.6378 40.8530 0003873 7.3753 352.7482 14.24026233128069 COSMOS 2569 (703K) 1 57517U 23114A 25345.08138527 -.00000027 00000+0 00000+0 0 9997 2 57517 65.1933 78.9695 0010485 287.0346 72.8683 2.13103934 18252 METEOR-M2 4 1 59051U 24039A 25347.33825147 .00000074 00000+0 52764-4 0 9990 2 59051 98.6766 304.2377 0007011 356.8620 3.2513 14.22401435 92842 GSAT0225 (GALILEO 29) 1 59598U 24079A 25344.53273100 .00000010 00000+0 00000+0 0 9996 2 59598 55.0006 106.3566 0002045 176.2356 187.3630 1.70474727 10101 GSAT0227 (GALILEO 30) 1 59600U 24079C 25342.95048883 .00000009 00000+0 00000+0 0 9990 2 59600 54.9946 106.4003 0003262 114.1820 245.8160 1.70474719 10123 GSAT0232 (GALILEO 32) 1 61182U 24167A 25346.45230025 .00000016 00000+0 00000+0 0 9994 2 61182 55.2408 226.4386 0001943 211.6313 332.0573 1.70473504 7695 GSAT0226 (GALILEO 31) 1 61183U 24167B 25346.85148941 .00000019 00000+0 00000+0 0 9997 2 61183 55.2391 226.4330 0000842 113.0334 68.3038 1.70473602 7673